CW3363 Weather Reports


time (UTC)temp
F
wind
direction
speed
knots
gust
knots
rain 1hr
in
rain 24hr
in
rain mn
in
humidity
%
barometer
mb
20260510022347 78 135 0.9 3.5 0.00 0.00 0.00 80 1010.4
20260510021850 78 123 0.0 6.1 0.00 0.00 0.00 79 1010.2
20260510021355 78 126 3.5 6.1 0.00 0.00 0.00 78 1010.2
20260510020838 78 143 3.5 5.2 0.00 0.00 0.00 78 1010.2
20260510020325 78 135 2.6 5.2 0.00 0.00 0.00 77 1009.6
20260510015827 78 124 3.5 5.2 0.00 0.00 0.00 77 1009.6
20260510015331 78 84 0.0 0.0 0.00 0.00 0.00 75 1009.6
20260510014839 78 84 0.0 0.0 0.00 0.00 0.00 75 1009.3
20260510014323 78 84 0.0 0.0 0.00 0.00 0.00 74 1009.3
20260510013825 79 84 0.0 0.0 0.00 0.00 0.00 73 1009.3
20260510013350 79 84 0.0 0.0 0.00 0.00 0.00 72 1009.5
20260510012837 80 84 0.0 0.0 0.00 0.00 0.00 71 1009.5
20260510012323 80 84 0.0 0.0 0.00 0.00 0.00 70 1009.5
20260510011829 80 84 0.0 1.7 0.00 0.00 0.00 70 1009.6
20260510011354 81 93 0.0 1.7 0.00 0.00 0.00 70 1009.6
20260510010838 81 9 0.0 6.1 0.00 0.00 0.00 70 1009.6
20260510010322 82 46 1.7 4.3 0.00 0.00 0.00 68 1009.0
20260510005846 82 9 1.7 7.8 0.00 0.00 0.00 62 1009.0
20260510005330 83 172 1.7 7.8 0.00 0.00 0.00 58 1009.0
20260510004834 83 178 1.7 5.2 0.00 0.00 0.00 59 1008.6
20260510004326 82 164 1.7 6.1 0.00 0.00 0.00 59 1008.6
20260510003829 82 181 2.6 6.1 0.00 0.00 0.00 61 1008.6
20260510003354 82 145 2.6 10.4 0.00 0.00 0.00 61 1008.7
20260510002835 83 183 3.5 11.3 0.00 0.00 0.00 60 1008.7
20260510002340 84 160 5.2 11.3 0.00 0.00 0.00 58 1008.7
20260510001826 86 175 3.5 6.1 0.00 0.00 0.00 65 1008.6
20260510001329 86 176 3.5 4.3 0.00 0.00 0.00 66 1008.6
20260510000832 86 152 2.6 6.1 0.00 0.00 0.00 67 1008.6
20260510000335 86 161 1.7 6.1 0.00 0.00 0.00 67 1008.4
20260509235837 87 198 2.6 6.1 0.00 0.00 0.00 67 1008.4
20260509235342 87 184 2.6 6.1 0.00 0.00 0.00 67 1008.4
20260509234826 87 205 0.0 6.1 0.00 0.00 0.00 67 1008.2
20260509234330 87 168 3.5 6.1 0.00 0.00 0.00 66 1008.2
20260509233832 88 236 0.0 0.0 0.00 0.00 0.00 71 1008.2
20260509233341 88 236 0.0 0.0 0.00 0.00 0.00 70 1008.1
20260509232826 88 236 0.0 0.0 0.00 0.00 0.00 67 1008.1
20260509232331 88 236 0.0 0.0 0.00 0.00 0.00 68 1008.1
20260509231835 89 236 0.0 0.0 0.00 0.00 0.00 66 1008.3
20260509231339 89 236 0.0 0.0 0.00 0.00 0.00 66 1008.3
20260509230844 89 236 0.0 0.0 0.00 0.00 0.00 65 1008.3
20260509230347 89 236 0.0 0.0 0.00 0.00 0.00 65 1008.1
20260509225828 89 236 0.0 0.0 0.00 0.00 0.00 63 1008.1
20260509225332 90 236 0.0 0.0 0.00 0.00 0.00 62 1008.1
20260509224900 90 236 0.0 0.0 0.00 0.00 0.00 60 1008.1
20260509224323 91 236 0.0 0.9 0.00 0.00 0.00 59 1008.1
20260509223832 92 236 0.0 1.7 0.00 0.00 0.00 59 1008.1
20260509223320 92 236 0.9 2.6 0.00 0.00 0.00 59 1008.1
20260509222827 92 236 0.9 2.6 0.00 0.00 0.00 59 1008.1
20260509222351 92 248 0.0 2.6 0.00 0.00 0.00 58 1008.1
20260509221854 92 254 0.9 1.7 0.00 0.00 0.00 60 1008.0
20260509221401 91 254 0.0 3.5 0.00 0.00 0.00 61 1008.0
20260509220826 91 254 1.7 3.5 0.00 0.00 0.00 61 1008.0
20260509220330 91 316 1.7 2.6 0.00 0.00 0.00 62 1008.0
20260509215835 90 316 0.9 4.3 0.00 0.00 0.00 63 1008.0
20260509215340 90 316 0.0 4.3 0.00 0.00 0.00 64 1008.0
20260509214823 90 329 1.7 3.5 0.00 0.00 0.00 64 1008.1
20260509214330 90 330 1.7 3.5 0.00 0.00 0.00 64 1008.1
20260509213832 90 134 2.6 3.5 0.00 0.00 0.00 64 1008.1
20260509213341 91 74 0.9 2.6 0.00 0.00 0.00 64 1008.1
20260509212825 90 217 0.9 2.6 0.00 0.00 0.00 64 1008.1
20260509212329 90 338 0.0 2.6 0.00 0.00 0.00 65 1008.1
20260509211832 90 65 0.0 2.6 0.00 0.00 0.00 64 1008.1
20260509211323 90 27 0.9 2.6 0.00 0.00 0.00 64 1008.1
20260509210828 89 72 0.9 2.6 0.00 0.00 0.00 66 1008.1
20260509210333 89 72 0.9 2.6 0.00 0.00 0.00 67 1008.6
20260509205835 89 80 0.0 3.5 0.00 0.00 0.00 68 1008.6
20260509205339 89 80 1.7 3.5 0.00 0.00 0.00 66 1008.6
20260509204823 89 11 0.0 1.7 0.00 0.00 0.00 67 1008.7
20260509204328 89 69 0.0 2.6 0.00 0.00 0.00 69 1008.7
20260509203831 88 10 0.0 2.6 0.00 0.00 0.00 70 1008.7
20260509203336 88 49 0.0 1.7 0.00 0.00 0.00 71 1008.8
20260509202841 88 49 0.0 2.6 0.00 0.00 0.00 70 1008.8
20260509202325 88 18 1.7 3.5 0.00 0.00 0.00 70 1008.8
20260509201836 88 143 1.7 3.5 0.00 0.00 0.00 70 1009.1
20260509201340 87 96 0.0 1.7 0.00 0.00 0.00 71 1009.1
20260509200825 87 113 0.0 2.6 0.00 0.00 0.00 70 1009.1
20260509200329 87 24 0.9 2.6 0.00 0.00 0.00 70 1009.1
20260509195832 88 319 0.9 2.6 0.00 0.00 0.00 70 1009.1
20260509195319 87 82 0.0 2.6 0.00 0.00 0.00 72 1009.1
20260509194825 87 324 0.9 2.6 0.00 0.00 0.00 69 1009.3
20260509194329 87 302 0.0 3.5 0.00 0.00 0.00 72 1009.3
20260509193833 87 358 1.7 3.5 0.00 0.00 0.00 71 1009.3
20260509193337 88 75 0.9 2.6 0.00 0.00 0.00 70 1009.4
20260509192825 88 317 0.9 2.6 0.00 0.00 0.00 68 1009.4
20260509192330 89 73 0.9 2.6 0.00 0.00 0.00 69 1009.4
20260509191833 88 226 0.9 2.6 0.00 0.00 0.00 69 1009.6
20260509191337 88 127 0.9 2.6 0.00 0.00 0.00 69 1009.6
20260509190841 87 304 0.9 5.2 0.00 0.00 0.00 69 1009.6
20260509190325 87 233 2.6 5.2 0.00 0.00 0.00 69 1009.6
20260509185848 87 42 0.0 3.5 0.00 0.00 0.00 71 1009.6
20260509185332 86 215 0.9 3.5 0.00 0.00 0.00 71 1009.6
20260509184838 86 298 0.0 5.2 0.00 0.00 0.00 70 1010.0
20260509184342 86 203 2.6 5.2 0.00 0.00 0.00 69 1010.0
20260509183826 86 310 1.7 5.2 0.00 0.00 0.00 70 1010.0
20260509183331 86 241 2.6 5.2 0.00 0.00 0.00 70 1010.1
20260509182839 87 248 1.7 4.3 0.00 0.00 0.00 71 1010.1
20260509182403 87 262 1.7 4.3 0.00 0.00 0.00 71 1010.1
20260509181846 86 164 2.6 5.2 0.00 0.00 0.00 71 1010.4
20260509181352 86 188 0.9 6.1 0.00 0.00 0.00 72 1010.4
20260509180833 85 217 3.5 6.1 0.00 0.00 0.00 74 1010.4
20260509180340 85 257 2.6 5.2 0.00 0.00 0.00 74 1010.6
20260509175822 85 172 0.9 5.2 0.00 0.00 0.00 73 1010.6
20260509175347 84 155 3.5 5.2 0.00 0.00 0.00 73 1010.6
20260509174832 84 161 2.6 9.6 0.00 0.00 0.00 75 1010.6
20260509174357 84 158 4.3 9.6 0.00 0.00 0.00 76 1010.6
20260509173841 84 196 5.2 8.7 0.00 0.00 0.00 76 1010.6
20260509173324 84 146 5.2 11.3 0.00 0.00 0.00 77 1010.7
20260509172851 85 186 4.3 11.3 0.00 0.00 0.00 76 1010.7
20260509172337 85 129 4.3 9.6 0.00 0.00 0.00 78 1010.7
20260509171823 83 150 5.2 9.6 0.00 0.00 0.00 79 1010.5
20260509171331 83 179 5.2 9.6 0.00 0.00 0.00 81 1010.5
20260509170835 82 198 5.2 9.6 0.00 0.00 0.00 81 1010.5
20260509170320 82 210 3.5 8.7 0.00 0.00 0.00 82 1010.3
20260509165825 81 146 4.3 7.8 0.00 0.00 0.00 84 1010.3
20260509165349 81 122 4.3 6.1 0.00 0.00 0.00 84 1010.3
20260509164831 80 168 3.5 6.1 0.00 0.00 0.00 85 1010.7
20260509164339 80 190 1.7 4.3 0.00 0.00 0.00 87 1010.7
20260509163846 79 191 1.7 4.3 0.00 0.00 0.00 87 1010.7
20260509163327 79 192 1.7 3.5 0.00 0.00 0.00 88 1011.0
20260509162832 79 159 0.9 3.5 0.00 0.00 0.00 88 1011.0
20260509162339 79 188 1.7 3.5 0.00 0.00 0.00 88 1011.0
20260509161842 79 303 0.0 1.7 0.00 0.00 0.00 89 1011.1
20260509161345 78 303 0.0 1.7 0.00 0.00 0.00 89 1011.1
20260509160827 78 303 0.0 1.7 0.00 0.00 0.00 90 1011.1
20260509160333 78 303 0.0 1.7 0.00 0.00 0.00 90 1011.1
20260509155840 78 303 0.0 1.7 0.00 0.00 0.00 90 1011.1
20260509155324 78 303 0.9 2.6 0.00 0.00 0.00 90 1011.1
20260509154828 78 299 0.9 2.6 0.00 0.00 0.00 90 1011.2
20260509154332 78 47 0.0 0.0 0.00 0.00 0.00 90 1011.2
20260509153858 78 296 0.0 0.0 0.00 0.00 0.00 90 1011.2
20260509153341 78 296 0.0 0.0 0.00 0.00 0.00 89 1011.2
20260509152825 78 317 0.0 1.7 0.00 0.00 0.00 90 1011.2
20260509152351 78 174 0.0 1.7 0.00 0.00 0.00 91 1011.2
20260509151855 78 174 0.0 0.0 0.00 0.00 0.00 92 1011.0
20260509151339 77 235 0.0 0.0 0.00 0.00 0.00 92 1011.0
20260509150843 77 235 0.0 0.0 0.00 0.00 0.00 93 1011.0
20260509150328 77 235 0.0 0.0 0.00 0.00 0.00 93 1010.7
20260509145831 77 235 0.0 0.0 0.00 0.00 0.00 93 1010.7
20260509145336 77 235 0.0 0.0 0.00 0.00 0.00 93 1010.7
20260509144823 77 235 0.0 0.0 0.00 0.00 0.00 94 1010.4
20260509144328 76 235 0.0 0.0 0.00 0.00 0.00 94 1010.3
20260509143836 76 141 0.0 0.0 0.00 0.00 0.00 95 1010.3
20260509143340 76 141 0.0 0.0 0.00 0.00 0.00 95 1010.6
20260509142822 76 142 0.0 0.0 0.00 0.00 0.00 95 1010.6
20260509142327 76 142 0.0 0.0 0.00 0.00 0.00 95 1010.6
20260509141832 76 142 0.0 0.9 0.00 0.00 0.00 96 1010.1
20260509141336 76 142 0.0 1.7 0.00 0.00 0.00 96 1010.1
20260509140840 76 142 0.9 2.6 0.00 0.00 0.00 96 1010.1
20260509140325 75 142 2.6 2.6 0.00 0.00 0.00 96 1010.3
20260509135829 75 191 0.0 2.6 0.00 0.00 0.00 96 1010.3
20260509135353 75 191 1.7 2.6 0.00 0.00 0.00 97 1010.3
20260509134835 75 137 0.0 0.0 0.00 0.00 0.00 97 1010.5
20260509134327 75 137 0.0 0.9 0.00 0.00 0.00 97 1010.5
20260509133832 75 137 0.0 3.5 0.00 0.00 0.00 97 1010.5
20260509133336 75 137 0.9 4.3 0.00 0.00 0.00 97 1011.2
20260509132845 75 144 3.5 4.3 0.00 0.00 0.00 97 1011.2
20260509132328 75 178 1.7 2.6 0.00 0.00 0.00 98 1011.2
20260509131852 75 178 0.0 0.9 0.00 0.00 0.00 98 1011.2
20260509131355 75 178 0.0 0.9 0.00 0.00 0.00 98 1011.2
20260509130840 75 178 0.0 0.9 0.00 0.00 0.00 98 1011.2
20260509130325 74 178 0.0 1.7 0.00 0.00 0.00 98 1010.8
20260509125827 74 178 0.0 2.6 0.00 0.00 0.00 98 1010.8
20260509125332 74 178 0.0 2.6 0.00 0.00 0.00 97 1010.8
20260509124855 74 178 1.7 2.6 0.00 0.00 0.00 98 1010.7
20260509124339 74 178 0.0 0.0 0.00 0.00 0.00 98 1010.7
20260509123844 74 178 0.0 0.0 0.00 0.00 0.00 98 1010.7
20260509123332 74 178 0.0 2.6 0.00 0.00 0.00 98 1010.6
20260509122836 74 178 0.9 2.6 0.00 0.00 0.00 98 1010.6
20260509122340 74 183 0.9 2.6 0.00 0.00 0.00 98 1010.6
20260509121824 73 183 1.7 2.6 0.00 0.00 0.00 97 1010.3
20260509121328 73 183 0.0 3.5 0.00 0.00 0.00 97 1010.3
20260509120832 73 183 1.7 3.5 0.00 0.00 0.00 97 1010.3
20260509120335 73 175 0.9 2.6 0.00 0.00 0.00 97 1010.2
20260509115839 73 129 0.0 0.0 0.00 0.00 0.00 97 1010.2
20260509115322 73 129 0.0 0.0 0.00 0.00 0.00 97 1010.2
20260509114828 73 129 0.0 0.0 0.00 0.00 0.00 97 1010.4
20260509114354 73 129 0.0 0.0 0.00 0.00 0.00 97 1010.4
20260509113822 73 129 0.0 0.0 0.00 0.00 0.00 97 1010.4
20260509113327 73 129 0.0 0.0 0.00 0.00 0.00 97 1010.7
20260509112832 73 129 0.0 0.0 0.00 0.00 0.00 97 1010.7
20260509112335 73 129 0.0 0.0 0.00 0.00 0.00 97 1010.7
20260509111820 73 129 0.0 0.0 0.00 0.00 0.00 97 1010.6
20260509111348 73 129 0.0 0.0 0.00 0.00 0.00 97 1010.6
20260509110832 73 129 0.0 0.0 0.00 0.00 0.00 97 1010.6
20260509110357 73 129 0.0 0.9 0.00 0.00 0.00 97 1010.6
20260509105839 73 129 0.0 0.9 0.00 0.00 0.00 97 1010.6
20260509105324 73 129 0.0 0.0 0.00 0.00 0.00 97 1010.6
20260509104831 73 129 0.0 0.0 0.00 0.00 0.00 97 1010.2
20260509104335 73 129 0.0 0.0 0.00 0.00 0.00 97 1010.2
20260509103839 73 129 0.0 0.0 0.00 0.00 0.00 97 1010.2
20260509103327 73 129 0.0 0.0 0.00 0.00 0.00 97 1010.1
20260509102831 73 129 0.0 0.0 0.00 0.00 0.00 97 1010.1
20260509102335 73 129 0.0 0.0 0.00 0.00 0.00 97 1010.1
20260509101838 73 129 0.0 0.0 0.00 0.00 0.00 97 1009.5
20260509101322 73 129 0.0 0.0 0.00 0.00 0.00 97 1009.5
20260509100827 74 129 0.0 2.6 0.00 0.00 0.00 96 1009.5
20260509100332 74 129 1.7 2.6 0.00 0.00 0.00 97 1009.4
20260509095835 74 129 1.7 2.6 0.00 0.00 0.00 97 1009.4
20260509095337 74 129 1.7 2.6 0.00 0.00 0.00 97 1009.4
20260509094823 74 129 0.0 0.0 0.00 0.00 0.00 96 1009.6
20260509094327 74 129 0.0 0.0 0.00 0.00 0.00 96 1009.6
20260509093831 74 129 0.0 0.0 0.00 0.00 0.00 96 1009.6
20260509093356 74 129 0.0 0.0 0.00 0.00 0.00 97 1010.1
20260509092845 74 129 0.0 0.0 0.00 0.00 0.00 97 1010.1
20260509092329 74 129 0.0 0.0 0.00 0.00 0.00 96 1010.1
20260509091834 74 129 0.0 0.0 0.00 0.00 0.00 97 1010.1
20260509091339 74 129 0.0 0.0 0.00 0.00 0.00 96 1010.1
20260509090823 74 129 0.0 0.0 0.00 0.00 0.00 96 1010.1
20260509090328 74 129 0.0 0.0 0.00 0.00 0.00 96 1010.1
20260509085830 74 129 0.0 0.0 0.00 0.00 0.00 96 1010.1
20260509085357 74 129 0.0 0.0 0.00 0.00 0.00 96 1010.1
20260509084823 74 129 0.0 0.0 0.00 0.00 0.00 96 1010.1
20260509084327 74 129 0.0 0.0 0.00 0.00 0.00 96 1010.1
20260509083831 74 129 0.0 0.9 0.00 0.00 0.00 96 1010.1
20260509083323 74 129 0.0 1.7 0.00 0.00 0.00 96 1010.0
20260509082826 74 129 0.9 1.7 0.00 0.00 0.00 96 1010.0
20260509082355 74 129 0.0 1.7 0.00 0.00 0.00 96 1010.0
20260509081839 74 129 0.0 1.7 0.00 0.00 0.00 96 1009.7
20260509081326 74 129 0.9 1.7 0.00 0.00 0.00 96 1009.7
20260509080829 74 129 0.0 2.6 0.00 0.00 0.00 96 1009.7
20260509080353 74 129 0.9 3.5 0.00 0.00 0.00 96 1010.0
20260509075856 74 129 1.7 3.5 0.00 0.00 0.00 96 1010.0
20260509075340 74 129 0.0 1.7 0.00 0.00 0.00 96 1010.0
20260509074846 74 129 0.0 1.7 0.00 0.00 0.00 96 1010.1
20260509074350 74 129 0.9 1.7 0.00 0.00 0.00 96 1010.1
20260509073856 74 129 0.9 2.6 0.00 0.00 0.00 96 1010.1
20260509073340 74 129 0.0 2.6 0.00 0.00 0.00 96 1010.1
20260509072823 74 129 0.9 0.9 0.00 0.00 0.00 96 1010.1
20260509072325 74 129 0.0 3.5 0.00 0.00 0.00 96 1010.1
20260509071831 74 129 0.9 4.3 0.00 0.00 0.00 96 1010.1
20260509071336 74 137 0.9 4.3 0.00 0.00 0.00 96 1010.1
20260509070823 74 130 1.7 3.5 0.00 0.00 0.00 96 1010.1
20260509070326 74 120 1.7 2.6 0.00 0.00 0.00 96 1010.1
20260509065830 74 120 0.9 2.6 0.00 0.00 0.00 96 1010.1
20260509065338 74 120 0.0 3.5 0.00 0.00 0.00 96 1010.1
20260509064822 74 120 1.7 3.5 0.00 0.00 0.00 96 1010.2
20260509064325 74 134 1.7 3.5 0.00 0.00 0.00 96 1010.2
20260509063830 74 124 0.0 0.0 0.00 0.00 0.00 96 1010.2
20260509063337 74 124 0.0 0.0 0.00 0.00 0.00 96 1010.5
20260509062843 74 124 0.0 0.0 0.00 0.00 0.00 96 1010.5
20260509062325 74 124 0.0 0.0 0.00 0.00 0.00 96 1010.5
20260509061830 74 124 0.0 0.0 0.00 0.00 0.00 96 1010.6
20260509061321 74 124 0.0 0.0 0.00 0.00 0.00 96 1010.6
20260509060825 74 124 0.0 0.0 0.00 0.00 0.00 96 1010.6
20260509060332 74 124 0.0 2.6 0.00 0.00 0.00 96 1010.6
20260509055834 74 124 0.0 2.6 0.00 0.00 0.00 96 1010.6
20260509055321 74 124 0.0 2.6 0.00 0.00 0.00 96 1010.6
20260509054846 74 124 0.9 2.6 0.00 0.00 0.00 96 1010.7
20260509054329 74 124 0.0 3.5 0.00 0.00 0.00 96 1010.7
20260509053834 74 124 2.6 3.5 0.00 0.00 0.00 96 1010.7
20260509053340 74 130 1.7 5.2 0.00 0.00 0.00 96 1010.7
20260509052823 73 119 2.6 5.2 0.00 0.00 0.00 96 1010.7
20260509052351 73 121 3.5 5.2 0.00 0.00 0.00 96 1010.7
20260509051856 73 123 3.5 4.3 0.00 0.00 0.00 96 1010.7
20260509051319 73 135 0.9 5.2 0.00 0.00 0.00 96 1010.7
20260509050826 73 146 3.5 5.2 0.00 0.00 0.00 96 1010.7
20260509050328 73 118 3.5 4.3 0.00 0.00 0.00 96 1010.7
20260509045850 73 126 2.6 4.3 0.00 0.00 0.00 96 1010.7
20260509045354 73 134 1.7 4.3 0.00 0.00 0.00 96 1010.7
20260509044824 73 132 2.6 6.1 0.00 0.00 0.00 96 1010.7
20260509044328 73 122 3.5 6.1 0.00 0.00 0.00 96 1010.7
20260509043835 73 125 3.5 4.3 0.00 0.00 0.00 96 1010.7
20260509043343 73 121 0.9 4.3 0.00 0.00 0.00 96 1010.9
20260509042845 73 121 0.9 4.3 0.00 0.00 0.00 96 1010.9
20260509042330 73 124 0.9 4.3 0.00 0.00 0.00 96 1010.9
20260509041832 73 131 0.9 4.3 0.00 0.00 0.00 96 1010.7
20260509041319 73 133 0.0 3.5 0.00 0.00 0.00 96 1010.7
20260509040826 73 125 0.0 3.5 0.00 0.00 0.00 96 1010.7
20260509040331 73 127 2.6 3.5 0.00 0.00 0.00 96 1010.3
20260509035833 73 26 0.9 2.6 0.00 0.00 0.00 96 1010.3
20260509035337 73 106 0.0 2.6 0.00 0.00 0.00 96 1010.3
20260509034824 73 106 0.0 4.3 0.00 0.00 0.00 96 1010.2
20260509034331 73 130 0.9 6.1 0.00 0.00 0.00 96 1010.2
20260509033821 73 127 2.6 6.1 0.00 0.00 0.00 95 1010.2
20260509033325 73 94 1.7 4.3 0.00 0.00 0.00 96 1010.3
20260509032827 73 132 1.7 2.6 0.00 0.00 0.00 95 1010.3
20260509032332 73 120 0.9 4.3 0.00 0.00 0.00 95 1010.3
20260509031859 73 132 0.9 4.3 0.00 0.00 0.00 95 1010.2
20260509031322 73 80 1.7 5.2 0.00 0.00 0.00 95 1010.2
20260509030848 73 135 2.6 4.3 0.00 0.00 0.00 95 1010.2
20260509030352 73 127 0.9 3.5 0.00 0.00 0.00 95 1010.1
20260509025834 73 125 1.7 4.3 0.00 0.00 0.00 95 1010.1
20260509025338 73 40 0.9 4.3 0.00 0.00 0.00 95 1010.1
20260509024821 73 73 0.9 3.5 0.00 0.00 0.00 95 1009.8
20260509024325 73 121 0.0 3.5 0.00 0.00 0.00 94 1009.8
20260509023829 73 121 0.9 3.5 0.00 0.00 0.00 94 1009.8
20260509023334 73 89 0.9 3.5 0.00 0.00 0.00 94 1010.1
20260509022822 73 64 0.9 3.5 0.00 0.00 0.00 94 1010.1